Regional Weather Roundup
Issued by NWS Northern Indiana

Home | Current Version | Previous Version | Graphics & Text | Print | Product List | Glossary On
Versions: 1 2 3 4 5 6 7 8 9 10 11 12 13 14 15 16 17 18 19 20 21 22 23 24 25 26 27 28 29 30 31 32 33 34 35 36 37 38 39 40 41 42 43 44 45 46 47 48 49 50
000
ASUS43 KIWX 192310
RWRIWX

KIWX WEATHER ROUNDUP
NATIONAL WEATHER SERVICE NORTHERN INDIANA
700 PM EDT FRI SEP 19 2014

NOTE: "FAIR" INDICATES FEW OR NO CLOUDS BELOW 12,000 FEET WITH NO
SIGNIFICANT WEATHER AND/OR OBSTRUCTIONS TO VISIBILITY.

* THESE STATIONS ARE NOT UNDER NWS QUALITY CONTROL. THEY ALSO MAY NOT
  REPORT WEATHER SUCH AS PRECIPITATION OR FOG.

INZ001>027-200000-
NORTHERN INDIANA

CITY           SKY/WX    TMP DP  RH WIND       PRES   REMARKS
GARY*          PTCLDY    73  43  33 S7        30.03F
VALPARAISO     CLEAR     70  44  39 S8        30.05S
MICHIGAN CITY* CLEAR     68  43  40 S6        30.04S
LAPORTE*       CLEAR     68  43  40 S7        30.05S
KNOX*          CLEAR     70  45  40 S7        30.04F
SOUTH BEND     CLEAR     69  47  45 S12       30.06F
ELKHART*       CLEAR     68  45  42 S12       30.07F
GOSHEN         CLEAR     69  49  48 SE7       30.06F
MONTICELLO*    CLEAR     68  49  49 S3        30.05S
LOGANSPORT*    CLEAR     68  45  42 SE7       30.07F
ROCHESTER*     CLEAR     70  50  49 SE6       30.07S
WARSAW*        CLEAR     68  46  45 CALM      30.07F
ANGOLA*        CLEAR     66  57  72 S6        30.08F
FORT WAYNE     MOCLDY    67  50  54 SE7       30.09F
HUNTINGTON*    CLEAR     67  50  53 CALM      30.08F
PERU/GRISSOM   CLEAR     69  51  52 SE7       30.06F
MARION*        CLEAR     69  44  40 S5        30.09S

$$
INZ028>050-200000-
CENTRAL INDIANA

CITY           SKY/WX    TMP DP  RH WIND       PRES   REMARKS
LAFAYETTE      CLEAR     69  48  47 S3        30.05S
KOKOMO*        CLEAR     66  48  52 SE6       30.08S
MUNCIE*        CLEAR     69  44  40 SE6       30.08F
INDIANAPOLIS   PTCLDY    70  47  43 SE9       30.06F

$$
MIZ043>046-050>051-056>058-064>065-071>073-077>080-200000-
SOUTHWEST LOWER MICHIGAN

CITY           SKY/WX    TMP DP  RH WIND       PRES   REMARKS
BATTLE CREEK   CLEAR     67  48  50 S9        30.07F
BENTON HARBOR  CLEAR     68  48  48 S9        30.04S
COLDWATER*     PTCLDY    67  49  51 S6        30.08F
HILLSDALE*     CLEAR     66  47  49 CALM      30.09F
HOLLAND        CLEAR     68  53  58 S8        30.04S
GRAND RAPIDS   MOCLDY    67  53  61 S9        30.04F
KALAMAZOO      CLEAR     68  49  50 S9        30.07F
STURGIS*       CLEAR     66  48  52 S8        30.07F
THREE RIVERS*  FAIR      67  50  54 S12       30.07F

$$
OHZ001>008-015>018-024>025-200000-
NORTHWEST OHIO

CITY           SKY/WX    TMP DP  RH WIND       PRES   REMARKS
WAUSEON*       FAIR      64  50  59 E5        30.09F
DEFIANCE       CLEAR     69  46  43 SE3       30.09F
FINDLAY        CLEAR     68  46  45 S6        30.09F
TOLEDO EXPRESS CLEAR     63  52  67 E7        30.09F
TOLEDO METCALF PTCLDY    63  53  70 E7        30.11F
LIMA           CLEAR     68  48  48 SE5       30.10F

$$
&&



USA.gov is the U.S. government's official web portal to all federal, state and local government web resources and services.